TimeCDT,TemperatureF,Dew PointF,Humidity,Sea Level PressureIn,VisibilityMPH,Wind Direction,Wind SpeedMPH,Gust SpeedMPH,PrecipitationIn,Events,Conditions,WindDirDegrees,DateUTC
12:15 AM,51.1,35.6,55,30.24,10.0,NNE,13.8,18.4,N/A,,Mostly Cloudy,30,2013-05-02 05:15:00
12:35 AM,50.5,36.1,58,30.24,10.0,NE,9.2,-,N/A,,Scattered Clouds,40,2013-05-02 05:35:00
12:55 AM,50.0,36.5,60,30.24,10.0,NNE,10.4,-,N/A,,Clear,30,2013-05-02 05:55:00
1:35 AM,48.7,35.1,59,30.23,10.0,NNE,15.0,21.9,N/A,,Clear,20,2013-05-02 06:35:00
1:55 AM,46.9,32.5,57,30.24,10.0,NNE,16.1,24.2,N/A,,Clear,30,2013-05-02 06:55:00
2:15 AM,46.6,32.0,57,30.24,10.0,NNE,15.0,26.5,N/A,,Mostly Cloudy,20,2013-05-02 07:15:00
2:35 AM,46.0,32.4,59,30.24,10.0,NNE,16.1,21.9,N/A,,Scattered Clouds,20,2013-05-02 07:35:00
2:55 AM,45.5,32.7,61,30.25,10.0,NNE,13.8,21.9,N/A,,Clear,20,2013-05-02 07:55:00
3:15 AM,45.1,32.0,60,30.24,10.0,NNE,20.7,28.8,N/A,,Scattered Clouds,20,2013-05-02 08:15:00
3:35 AM,44.8,32.0,61,30.26,10.0,North,13.8,27.6,N/A,,Scattered Clouds,10,2013-05-02 08:35:00
3:55 AM,44.6,32.5,63,30.25,10.0,NNE,10.4,18.4,N/A,,Clear,20,2013-05-02 08:55:00
4:15 AM,44.1,35.1,71,30.25,10.0,North,11.5,23.0,N/A,,Scattered Clouds,10,2013-05-02 09:15:00
4:35 AM,43.7,33.8,68,30.25,10.0,North,15.0,23.0,N/A,,Scattered Clouds,10,2013-05-02 09:35:00
4:55 AM,43.3,33.4,68,30.25,10.0,NNE,15.0,19.6,N/A,,Scattered Clouds,20,2013-05-02 09:55:00
5:15 AM,42.8,32.0,66,30.26,10.0,NNE,12.7,26.5,N/A,,Clear,20,2013-05-02 10:15:00
5:35 AM,42.4,32.2,67,30.27,10.0,North,9.2,17.3,N/A,,Clear,10,2013-05-02 10:35:00
5:55 AM,42.3,31.3,65,30.26,10.0,NNE,18.4,24.2,N/A,,Clear,20,2013-05-02 10:55:00
6:15 AM,41.9,31.5,66,30.25,10.0,NNE,15.0,24.2,N/A,,Clear,20,2013-05-02 11:15:00
6:35 AM,42.1,31.5,66,30.26,10.0,NNE,15.0,20.7,N/A,,Clear,20,2013-05-02 11:35:00
6:55 AM,42.4,31.8,66,30.27,10.0,North,15.0,20.7,N/A,,Clear,10,2013-05-02 11:55:00
7:15 AM,42.8,31.6,65,30.27,10.0,NNE,16.1,21.9,N/A,,Clear,20,2013-05-02 12:15:00
7:35 AM,43.7,31.8,63,30.27,10.0,NNE,18.4,26.5,N/A,,Scattered Clouds,20,2013-05-02 12:35:00
7:55 AM,43.7,31.8,63,30.28,10.0,NNE,15.0,25.3,N/A,,Clear,20,2013-05-02 12:55:00
8:15 AM,44.1,32.0,63,30.27,10.0,NNE,15.0,20.7,N/A,,Clear,20,2013-05-02 13:15:00
8:35 AM,45.3,32.5,61,30.28,10.0,NNE,13.8,-,N/A,,Clear,30,2013-05-02 13:35:00
8:55 AM,46.4,32.9,59,30.29,10.0,North,10.4,-,N/A,,Clear,360,2013-05-02 13:55:00
9:15 AM,47.3,33.1,58,30.29,10.0,North,10.4,-,N/A,,Scattered Clouds,10,2013-05-02 14:15:00
9:35 AM,48.2,34.0,58,30.29,10.0,North,12.7,-,N/A,,Scattered Clouds,360,2013-05-02 14:35:00
9:55 AM,47.5,33.8,59,30.30,10.0,North,13.8,20.7,N/A,,Mostly Cloudy,350,2013-05-02 14:55:00
10:15 AM,47.8,33.8,58,30.30,10.0,North,12.7,21.9,N/A,,Overcast,350,2013-05-02 15:15:00
10:35 AM,49.1,34.7,58,30.29,10.0,North,15.0,18.4,N/A,,Mostly Cloudy,350,2013-05-02 15:35:00
10:55 AM,49.5,34.9,57,30.28,10.0,North,17.3,-,N/A,,Scattered Clouds,10,2013-05-02 15:55:00
11:15 AM,50.2,34.9,56,30.29,10.0,NNW,17.3,21.9,N/A,,Scattered Clouds,340,2013-05-02 16:15:00
11:35 AM,50.4,35.1,56,30.28,10.0,North,13.8,25.3,N/A,,Scattered Clouds,360,2013-05-02 16:35:00
11:55 AM,50.9,35.4,55,30.27,10.0,North,15.0,20.7,N/A,,Mostly Cloudy,350,2013-05-02 16:55:00
12:15 PM,50.7,35.2,55,30.26,10.0,North,16.1,21.9,N/A,,Scattered Clouds,10,2013-05-02 17:15:00
12:35 PM,51.8,36.1,55,30.25,10.0,North,15.0,20.7,N/A,,Scattered Clouds,360,2013-05-02 17:35:00
12:55 PM,52.0,36.5,56,30.24,10.0,North,15.0,-,N/A,,Scattered Clouds,360,2013-05-02 17:55:00
1:15 PM,49.5,35.4,58,30.29,10.0,North,4.6,-,N/A,,Mostly Cloudy,350,2013-05-02 18:15:00
1:35 PM,47.5,40.6,77,30.27,4.0,North,11.5,-,0.11,Rain-Thunderstorm,Heavy Thunderstorms and Rain,360,2013-05-02 18:35:00
1:55 PM,46.4,41.5,83,30.22,3.0,North,15.0,24.2,0.18,Rain-Thunderstorm,Thunderstorms and Rain,360,2013-05-02 18:55:00
2:15 PM,47.5,42.3,82,30.23,10.0,NNE,16.1,20.7,0.01,,Mostly Cloudy,20,2013-05-02 19:15:00
2:35 PM,47.5,41.7,80,30.22,10.0,North,17.3,21.9,0.01,Rain,Light Rain,360,2013-05-02 19:35:00
2:55 PM,47.3,41.7,81,30.22,5.0,North,15.0,20.7,0.03,Rain,Heavy Rain,360,2013-05-02 19:55:00
3:15 PM,48.7,43.2,81,30.23,10.0,North,16.1,21.9,N/A,Thunderstorm,Overcast,350,2013-05-02 20:15:00
3:35 PM,48.6,42.4,79,30.24,10.0,North,11.5,24.2,N/A,,Overcast,350,2013-05-02 20:35:00
3:55 PM,48.2,41.2,77,30.26,10.0,NNW,6.9,11.5,N/A,,Overcast,330,2013-05-02 20:55:00
4:15 PM,48.2,42.1,79,30.22,10.0,North,15.0,-,N/A,,Overcast,350,2013-05-02 21:15:00
4:35 PM,47.3,42.4,83,30.21,10.0,North,15.0,21.9,0.01,Rain,Light Rain,360,2013-05-02 21:35:00
4:55 PM,46.9,41.5,81,30.22,10.0,North,13.8,20.7,0.01,,Overcast,350,2013-05-02 21:55:00
5:15 PM,46.4,41.0,81,30.24,10.0,NNW,12.7,-,N/A,,Overcast,340,2013-05-02 22:15:00
5:35 PM,45.5,40.1,81,30.24,10.0,NNW,11.5,17.3,N/A,,Overcast,340,2013-05-02 22:35:00
5:55 PM,44.6,38.5,79,30.24,10.0,NNW,16.1,23.0,N/A,Thunderstorm,Overcast,340,2013-05-02 22:55:00
6:15 PM,43.9,37.4,78,30.23,10.0,NNW,20.7,25.3,N/A,Thunderstorm,Overcast,340,2013-05-02 23:15:00
6:35 PM,43.7,37.6,79,30.23,10.0,North,16.1,20.7,N/A,,Overcast,10,2013-05-02 23:35:00
6:55 PM,41.5,37.0,84,30.22,5.0,North,16.1,20.7,0.02,Rain-Thunderstorm,Light Thunderstorms and Rain,350,2013-05-02 23:55:00
7:15 PM,41.2,37.2,86,30.24,10.0,North,17.3,20.7,N/A,Rain,Light Rain,350,2013-05-03 00:15:00
7:35 PM,40.3,36.0,85,30.29,10.0,North,10.4,18.4,0.01,Rain-Thunderstorm,Thunderstorms and Rain,10,2013-05-03 00:35:00
7:55 PM,39.9,36.5,88,30.26,2.5,North,13.8,19.6,0.08,Rain,Heavy Rain,350,2013-05-03 00:55:00
8:15 PM,39.2,36.5,90,30.26,10.0,North,15.0,21.9,0.01,Rain,Rain,360,2013-05-03 01:15:00
8:35 PM,39.2,36.5,90,30.25,10.0,North,18.4,23.0,0.02,Rain,Rain,360,2013-05-03 01:35:00
8:55 PM,38.7,36.0,90,30.23,10.0,North,18.4,27.6,0.02,Rain,Light Rain,10,2013-05-03 01:55:00
9:15 PM,38.8,36.1,90,30.25,10.0,North,12.7,20.7,N/A,,Drizzle,350,2013-05-03 02:15:00
9:35 PM,38.8,36.1,90,30.27,10.0,North,12.7,-,N/A,,Overcast,360,2013-05-03 02:35:00
9:55 PM,38.7,36.3,91,30.24,7.0,North,13.8,-,N/A,Rain,Light Rain,350,2013-05-03 02:55:00
10:15 PM,38.1,35.8,91,30.24,7.0,NNW,13.8,20.7,0.01,Rain,Light Rain,340,2013-05-03 03:15:00
10:35 PM,37.8,35.4,91,30.23,10.0,NNW,15.0,24.2,0.01,Rain,Light Rain,340,2013-05-03 03:35:00
10:55 PM,37.4,34.9,91,30.24,10.0,North,18.4,-,0.01,Rain,Rain,350,2013-05-03 03:55:00
11:15 PM,36.9,34.5,91,30.25,10.0,NNW,13.8,19.6,N/A,,Overcast,330,2013-05-03 04:15:00
11:35 PM,36.9,34.7,92,30.24,10.0,North,11.5,19.6,N/A,,Light Drizzle,350,2013-05-03 04:35:00
11:55 PM,36.7,34.5,92,30.24,10.0,North,10.4,16.1,N/A,Rain,Light Rain,350,2013-05-03 04:55:00